When you browse on this site, cookies collect data to enhance your experience and personalize the content and advertising you see.
Visit our Privacy Policy to learn more. By continuing to use the site, you agree to this use of cookies and data.
  • In Romania
  • List of Countries
  • For 7 days
  • Water Temperature
  • Satellite Maps
  • Weather Map
  • Weather Widgets
  • user-avatar
    Login

    Hourly Weather Port-au-Princ

    Today, 20 January, Sunday

    Time Temperature Precipitation Wind Pressure Humidity
    00:00 +23°C° 0 mm 2 mps 737 mmHg 82%
    01:00 +23°C° 0 mm 2 mps 737 mmHg 83%
    02:00 +23°C° 0 mm 2 mps 737 mmHg 82%
    03:00 +23°C° 0 mm 2 mps 736 mmHg 82%
    04:00 +21°C° 0 mm 2 mps 736 mmHg 82%
    05:00 +21°C° 0 mm 2 mps 737 mmHg 80%
    06:00 +21°C° 0 mm 2 mps 737 mmHg 78%
    07:00 +21°C° 0 mm 2 mps 737 mmHg 77%
    08:00 +25°C° 0 mm 2 mps 738 mmHg 66%
    09:00 +27°C° 0 mm 2 mps 738 mmHg 55%
    10:00 +30°C° 0 mm 2 mps 739 mmHg 44%
    11:00 +30°C° 0 mm 2 mps 738 mmHg 43%
    12:00 +31°C° 0 mm 2 mps 738 mmHg 41%
    13:00 +32°C° 0 mm 2 mps 738 mmHg 40%
    14:00 +31°C° 0 mm 2 mps 737 mmHg 43%
    15:00 +31°C° 0 mm 2 mps 737 mmHg 46%
    16:00 +30°C° 0 mm 2 mps 737 mmHg 50%
    17:00 +28°C° 0 mm 2 mps 737 mmHg 56%
    18:00 +27°C° 0 mm 1 mps 737 mmHg 62%
    19:00 +25°C° 0 mm 1 mps 737 mmHg 68%
    20:00 +25°C° 0 mm 1 mps 738 mmHg 69%
    21:00 +24°C° 0 mm 1 mps 738 mmHg 70%
    22:00 +24°C° 0 mm 1 mps 738 mmHg 71%
    23:00 +23°C° 0 mm 1 mps 738 mmHg 72%

    Tomorrow, 21 January, Monday

    Time Temperature Precipitation Wind Pressure Humidity
    00:00 +23°C° 0 mm 1 mps 738 mmHg 73%
    01:00 +23°C° 0 mm 1 mps 738 mmHg 74%
    02:00 +22°C° 0 mm 1 mps 738 mmHg 74%
    03:00 +22°C° 0 mm 1 mps 737 mmHg 74%
    04:00 +22°C° 0 mm 1 mps 737 mmHg 74%
    05:00 +22°C° 0 mm 1 mps 738 mmHg 74%
    06:00 +23°C° 0 mm 1 mps 738 mmHg 73%
    07:00 +23°C° 0 mm 1 mps 739 mmHg 73%
    08:00 +25°C° 0 mm 1 mps 739 mmHg 65%
    09:00 +27°C° 0 mm 1 mps 740 mmHg 56%
    10:00 +30°C° 0 mm 1 mps 740 mmHg 48%
    11:00 +31°C° 0 mm 1 mps 740 mmHg 45%
    12:00 +31°C° 0 mm 1 mps 739 mmHg 43%
    13:00 +32°C° 0 mm 1 mps 739 mmHg 40%
    14:00 +32°C° 0 mm 2 mps 738 mmHg 43%
    15:00 +31°C° 0 mm 2 mps 738 mmHg 46%
    16:00 +30°C° 0 mm 3 mps 737 mmHg 48%
    17:00 +29°C° 0 mm 2 mps 738 mmHg 58%
    18:00 +27°C° 0 mm 2 mps 738 mmHg 67%
    19:00 +25°C° 0 mm 2 mps 739 mmHg 76%
    20:00 +25°C° 0 mm 1 mps 739 mmHg 79%
    21:00 +24°C° 0 mm 1 mps 739 mmHg 81%
    22:00 +24°C° 0 mm 1 mps 739 mmHg 83%
    23:00 +23°C° 0 mm 1 mps 739 mmHg 82%

    Day after tomorrow, 22 January, Tuesday

    Time Temperature Precipitation Wind Pressure Humidity
    00:00 +23°C° 0 mm 1 mps 739 mmHg 82%
    01:00 +23°C° 0 mm 2 mps 738 mmHg 82%
    02:00 +23°C° 0 mm 2 mps 738 mmHg 82%
    03:00 +21°C° 0 mm 2 mps 738 mmHg 82%
    04:00 +21°C° 0 mm 2 mps 738 mmHg 83%
    05:00 +21°C° 0 mm 2 mps 738 mmHg 83%
    06:00 +21°C° 0 mm 2 mps 739 mmHg 83%
    07:00 +21°C° 0 mm 2 mps 739 mmHg 83%
    08:00 +24°C° 0 mm 2 mps 739 mmHg 72%
    09:00 +27°C° 0 mm 2 mps 740 mmHg 60%
    10:00 +29°C° 0 mm 2 mps 740 mmHg 49%
    11:00 +30°C° 0 mm 2 mps 740 mmHg 44%
    12:00 +31°C° 0 mm 1 mps 740 mmHg 40%
    13:00 +33°C° 0 mm 1 mps 739 mmHg 35%
    14:00 +32°C° 0 mm 1 mps 739 mmHg 37%
    15:00 +31°C° 0 mm 2 mps 738 mmHg 38%
    16:00 +31°C° 0 mm 2 mps 738 mmHg 40%
    17:00 +29°C° 0 mm 2 mps 738 mmHg 48%
    18:00 +27°C° 0 mm 1 mps 739 mmHg 56%
    19:00 +25°C° 0 mm 1 mps 739 mmHg 63%
    20:00 +25°C° 0 mm 1 mps 739 mmHg 65%
    21:00 +24°C° 0 mm 1 mps 739 mmHg 66%
    22:00 +24°C° 0 mm 2 mps 739 mmHg 68%
    23:00 +23°C° 0 mm 2 mps 739 mmHg 69%

    23 January, Wednesday

    Time Temperature Precipitation Wind Pressure Humidity
    00:00 +23°C° 0 mm 2 mps 739 mmHg 70%
    01:00 +21°C° 0 mm 2 mps 738 mmHg 72%
    02:00 +21°C° 0 mm 2 mps 738 mmHg 69%
    03:00 +21°C° 0 mm 3 mps 738 mmHg 67%
    04:00 +20°C° 0 mm 3 mps 738 mmHg 65%
    05:00 +20°C° 0 mm 3 mps 738 mmHg 63%
    06:00 +21°C° 0 mm 3 mps 739 mmHg 61%
    07:00 +21°C° 0 mm 3 mps 739 mmHg 59%
    08:00 +24°C° 0 mm 3 mps 740 mmHg 54%
    09:00 +27°C° 0 mm 3 mps 740 mmHg 49%
    10:00 +29°C° 0 mm 4 mps 741 mmHg 45%
    11:00 +30°C° 0 mm 4 mps 740 mmHg 43%
    12:00 +32°C° 0 mm 4 mps 739 mmHg 42%
    13:00 +33°C° 0 mm 4 mps 739 mmHg 41%
    14:00 +33°C° 0 mm 4 mps 738 mmHg 43%
    15:00 +31°C° 0 mm 3 mps 738 mmHg 46%
    16:00 +30°C° 0 mm 3 mps 737 mmHg 48%
    17:00 +29°C° 0 mm 3 mps 738 mmHg 53%
    18:00 +27°C° 0 mm 3 mps 738 mmHg 59%
    19:00 +25°C° 0 mm 2 mps 738 mmHg 64%
    20:00 +24°C° 0 mm 2 mps 738 mmHg 68%
    21:00 +24°C° 0 mm 2 mps 738 mmHg 71%
    22:00 +23°C° 0 mm 2 mps 738 mmHg 75%
    23:00 +23°C° 0 mm 2 mps 738 mmHg 77%

    24 January, Thursday

    Time Temperature Precipitation Wind Pressure Humidity
    00:00 +23°C° 0 mm 2 mps 738 mmHg 78%
    01:00 +23°C° 0 mm 2 mps 737 mmHg 80%
    02:00 +21°C° 0 mm 2 mps 737 mmHg 80%
    03:00 +21°C° 0 mm 3 mps 737 mmHg 80%
    04:00 +21°C° 0 mm 3 mps 737 mmHg 80%
    05:00 +21°C° 0 mm 3 mps 737 mmHg 79%
    06:00 +22°C° 0 mm 3 mps 737 mmHg 78%
    07:00 +22°C° 0 mm 3 mps 738 mmHg 77%
    08:00 +25°C° 0 mm 3 mps 738 mmHg 68%
    09:00 +27°C° 0 mm 4 mps 739 mmHg 58%
    10:00 +30°C° 0 mm 4 mps 739 mmHg 48%
    11:00 +30°C° 0 mm 4 mps 739 mmHg 48%
    12:00 +32°C° 0 mm 4 mps 738 mmHg 47%
    13:00 +32°C° 0 mm 4 mps 738 mmHg 47%
    14:00 +32°C° 0 mm 4 mps 737 mmHg 48%
    15:00 +30°C° 0 mm 3 mps 737 mmHg 50%
    16:00 +30°C° 0 mm 3 mps 737 mmHg 52%
    17:00 +28°C° 0 mm 3 mps 737 mmHg 58%
    18:00 +27°C° 0 mm 2 mps 737 mmHg 64%
    19:00 +25°C° 0 mm 2 mps 737 mmHg 70%
    20:00 +24°C° 0 mm 2 mps 737 mmHg 73%
    21:00 +24°C° 0 mm 2 mps 738 mmHg 77%
    22:00 +23°C° 0 mm 2 mps 738 mmHg 80%
    23:00 +23°C° 0 mm 2 mps 738 mmHg 80%

    25 January, Friday

    Time Temperature Precipitation Wind Pressure Humidity
    00:00 +21°C° 0 mm 2 mps 738 mmHg 81%
    01:00 +21°C° 0 mm 2 mps 737 mmHg 81%
    02:00 +21°C° 0 mm 2 mps 737 mmHg 76%
    03:00 +21°C° 0 mm 2 mps 737 mmHg 71%
    04:00 +21°C° 0 mm 2 mps 737 mmHg 66%
    05:00 +21°C° 0 mm 2 mps 737 mmHg 63%
    06:00 +21°C° 0 mm 2 mps 738 mmHg 60%
    07:00 +23°C° 0 mm 2 mps 738 mmHg 57%
    08:00 +25°C° 0 mm 2 mps 738 mmHg 54%
    09:00 +28°C° 0 mm 2 mps 739 mmHg 52%
    10:00 +30°C° 0 mm 2 mps 739 mmHg 49%
    11:00 +31°C° 0 mm 2 mps 738 mmHg 48%
    12:00 +31°C° 0 mm 2 mps 738 mmHg 48%
    13:00 +32°C° 0 mm 2 mps 737 mmHg 47%
    14:00 +31°C° 0 mm 2 mps 737 mmHg 50%
    15:00 +30°C° 0 mm 2 mps 737 mmHg 52%
    16:00 +29°C° 0 mm 1 mps 736 mmHg 55%
    17:00 +28°C° 0.1 mm 1 mps 737 mmHg 60%
    18:00 +27°C° 0.1 mm 1 mps 737 mmHg 65%
    19:00 +25°C° 0.1 mm 1 mps 737 mmHg 70%
    20:00 +25°C° 0.1 mm 1 mps 738 mmHg 70%
    21:00 +25°C° 0.1 mm 1 mps 738 mmHg 71%
    22:00 +24°C° 0.1 mm 1 mps 738 mmHg 72%
    23:00 +24°C° 0 mm 1 mps 738 mmHg 74%
    Show more